Latest  Newer  Older  Last 2 hours slideshow  Last 24 hours slideshow  Refresh every 5 minutes 
Current image  Latest image  Rain/snow radar  Cloud coverage sat images 

All time is UTC (add 2 hours to UTC in wintertime, 3 hours to UTC in DST for Latvia local time)

2022/01/16 19:50 EVRA 161950Z 20012KT 6000 -RASN OVC005 01/M00 Q0998 RERASN TEMPO 4000
2022/01/16 19:50 EVLA 161950Z AUTO 26021KT 9999 OVC008/// 04/03 Q0999
2022/01/16 19:50 EVVA 161950Z AUTO 25017G30KT 9999 FEW011 SCT017 OVC023 04/03 Q0996
2022/01/16 19:50 EYKA 161950Z 24012KT 200V260 6000 OVC010 M01/M04 Q1005
2022/01/16 19:50 EYPA 161950Z 26009G20KT 200V340 7000 -RA BKN008 04/03 Q1001
2022/01/16 19:50 EYSA 161950Z 21016KT 9999 -SNRA BKN006 OVC014 M01/M01 Q1000 NOSIG
2022/01/16 19:50 EYVI 161950Z 23013KT 8000 OVC008 M03/M04 Q1005 NOSIG



2022/01/16 19:50 EETN 161950Z 20007KT 180V250 9999 SCT048 02/00 Q0988 NOSIG

   RIGA AIRPORT     EVRA               56 55N  023 58E   10   X     T          6 LV
   LIEPAJA INTL     EVLA        26406  56 31N  021 06E    4   X                8 LV
   VENTPILS         EVVA               57 21N  021 33E    6   X                8 LV
   KAUNAS           EYKA               54 54N  023 55E   77   X     T          6 LT
   PALANGA INTL     EYPA               55 55N  021 03E   10   X                6 LT
   SIAULIAI INTL    EYSA               55 54N  023 24E  135   X     T          6 LT
   VILNIUS INTL     EYVI        26730  54 38N  025 17E  197   X     T          6 LT
   KARDLA           EEKA        26116  58 59N  022 50E    4   X                8 EE
   KURESSAARE       EEKE               58 14N  022 31E    4   X                8 EE
   PARNU            EEPU               58 25N  024 28E   14   X                8 EE
   TALLINN          EETN        26038  59 24N  024 49E   40   X     T          8 EE
   TARTU            EETU               58 19N  026 41E   67   X                8 EE